Regional Weather Roundup
Issued by NWS

Home | Current Version | Previous Version | Text Only | Print | Product List | Glossary On
Versions: 1 2 3 4 5 6 7 8 9 10 11 12 13 14 15 16 17 18 19 20 21 22 23 24 25 26 27 28 29 30 31 32 33 34 35 36 37 38 39 40 41 42 43 44 45 46 47 48 49 50
000
ASUS42 KTBW 291316
RWRFL
FLORIDA REGIONAL WEATHER ROUNDUP
NATIONAL WEATHER SERVICE TAMPA BAY RUSKIN FL
900 AM EDT FRI APR 29 2016

NOTE: "FAIR" INDICATES FEW OR NO CLOUDS BELOW 12,000 FEET WITH NO
SIGNIFICANT WEATHER AND/OR OBSTRUCTIONS TO VISIBILITY.

FLZ001>010-012>015-112-114-115-291400-
PANHANDLE FLORIDA

CITY           SKY/WX    TMP DP  RH WIND       PRES   REMARKS
PENSACOLA      SUNNY     74  66  76 SE6       29.99R
MILTON NAS     MOSUNNY   72  67  84 CALM      29.99
CRESTVIEW      SUNNY     69  65  86 CALM      30.01S
DUKE FIELD     FAIR      72  65  78 E2        29.99R
VALPARAISO     MOSUNNY   74  66  77 E3        29.99S
MARY ESTHER    SUNNY     72  68  88 E3        29.98R
PANAMA CITY    FOG       71  70  96 CALM      30.00R VSB 1
TYNDALL AFB    DRZL/FOG  73  73 100 NE2       30.00R VSB 1/2
APALACHICOLA   FOG       73  73 100 NE5       30.01R VSB 1/4

STATION/POSITION SKY/WX   TEMP    WIND        PRES    WAVE   SWELL
                          AIR SEA DIR/SP/G            HT/PER HT/PER
                          (F)     (DEG/KT/KT) (MB)    (FT/S) (FT/S)
30.1N   87.6W              74 73  100/  6/  8 1014.4R   2/ 6   2/ 6
29.2N   88.2W              74 74  120/  8/ 10 1014.5R
28.8N   86.0W              78 78  120/  6/  6 1016.1R   2/ 5   2/ 5
PANAMA CITY BEAC           70 75   50/  5/  5 1015.8R
TOWER C                    76        CALM     1016.7R
28.5N   84.5W              75 74  130/  6/  6 1016.0R   2/ 6   2/ 6

$$
FLZ011-016>038-118-127-128-134-139-239-291400-
NORTH FLORIDA

CITY           SKY/WX    TMP DP  RH WIND       PRES   REMARKS
MARIANNA       CLOUDY    70  70 100 CALM      30.01R FOG
TALLAHASSEE    PTSUNNY   74  69  85 CALM      30.01S
PERRY          SUNNY     74  72  92 CALM      30.03S
LIVE OAK       CLOUDY    73  73 100 CALM      30.05S
CROSS CITY       N/A     75  71  87 N5        30.02S
LAKE CITY      FAIR      73  72  94 N5        30.03F
GAINESVILLE    PTSUNNY   74  71  91 NW6       30.03S
WILLISTON      PTSUNNY   75  75 100 N3        30.04S
PALATKA        FOG       68  68 100 NW5       30.04S VSB 1/4
MAYPORT NAS    PTSUNNY   73  69  87 W7        30.02F
JACKSONVILLE   PTSUNNY   73  71  93 W8        30.02S
JAX NAS        CLOUDY    74  70  87 NW7       30.04S
JAX CECIL      PTSUNNY   73  73 100 NW8       30.04R
FERNANDINA BEA CLOUDY    73  72  94 NW8       30.01S
ST AUGUSTINE   PTSUNNY   72  68  87 W12       30.04R FOG
PALM COAST     MOSUNNY   72  72 100 W3        30.03R

STATION/POSITION SKY/WX   TEMP    WIND        PRES    WAVE   SWELL
                          AIR SEA DIR/SP/G            HT/PER HT/PER
                          (F)     (DEG/KT/KT) (MB)    (FT/S) (FT/S)
SHELL POINT                73      10/  1/  2 1015.0
KEATON BEACH               72      60/  4/  5 1016.1R
CEDAR KEY                  76      30/  3/  4 1016.9R
FERNANDINA                 71 76  270/  7/ 10 1016.6R
30.7N   81.3W                 71                N/A     2/11
MAYPORT                    69 74  290/  9/ 13 1016.9R
ST AUGUSTINE               74 69  290/  7/  8 1017.5R

$$
FLZ040-043>046-052-053-057-058-063-144-291400-
INTERIOR CENTRAL FLORIDA

CITY           SKY/WX    TMP DP  RH WIND       PRES   REMARKS
THE VILLAGES   FOG       72  72 100 CALM      29.94S VSB 1/2
LEESBURG       CLOUDY    72  71  97 CALM      30.04S FOG
SANFORD        SUNNY     76  70  82 NW3       30.03S
ORLANDO EXEC   SUNNY     77  70  79 CALM      30.03S
ORLANDO INTL   MOSUNNY   76  69  79 CALM      30.03S
KISSIMMEE      SUNNY     75  70  83 CALM      30.04R
WINTER HAVEN   SUNNY     76  69  79 E3        30.04S
LAKELAND       SUNNY     75  70  83 E5        30.03S
BARTOW         SUNNY     73  66  78 CALM      30.04S
OKEECHOBEE     MOSUNNY   77  70  78 S8        30.03S

$$
FLZ041-047-054-059-064-141-147-291400-
EAST CENTRAL FLORIDA

CITY           SKY/WX    TMP DP  RH WIND       PRES   REMARKS
ORMOND BEACH   SUNNY     73  70  88 NW6       30.03R
DAYTONA BEACH  MOSUNNY   74  72  93 NW6       30.03R
DELAND           N/A     75  70  83 NW5       30.04S
NEW SMYRNA BEA SUNNY     73  72  94 W6        30.03S
JFK SPACE CTR  SUNNY     76  69  78 W8        30.02S
CAPE CANAVERAL SUNNY     78  70  77 SW8       30.01S
PATRICK AFB    SUNNY     78  70  78 SW8       30.02S
MELBOURNE      SUNNY     77  70  79 S7        30.02S
VERO BEACH     SUNNY     77  68  73 S7        30.03S
FT PIERCE      SUNNY     76  69  79 S6        30.02F
STUART         SUNNY     81  72  74 SW5       30.04R

STATION/POSITION SKY/WX   TEMP    WIND        PRES    WAVE   SWELL
                          AIR SEA DIR/SP/G            HT/PER HT/PER
                          (F)     (DEG/KT/KT) (MB)    (FT/S) (FT/S)
28.5N   80.2W              76 77  240/  8/ 10 1016.9R
28.9N   78.5W              76 76  210/ 10/ 12 1016.5R
TRIDENT PIER               75 78  190/  6/  7 1016.6R
28.4N   80.5W                 77                N/A     2/10
27.5N   80.2W                 78                N/A     2/10   2/11

$$
FLZ050-056-061-142-242-148-248-149-249-151-251-155-255-
160-260-291400-
WEST CENTRAL FLORIDA

CITY           SKY/WX    TMP DP  RH WIND       PRES   REMARKS
CRYSTAL RIVER  FAIR     N/A N/A N/A CALM      30.03S
INVERNESS      FOG       70  70 100 CALM      30.03F VSB 1/4
BROOKSVILLE      N/A     73  70  90 CALM      30.03S
ZEPHYRHILLS    FAIR      70  65  84 CALM      30.04R
CLEARWATER AIR FAIR      77  70  78 NE5       30.02R
ST PETE CLEARW SUNNY     77  71  82 NE6       30.02R
TAMPA INTL     MOSUNNY   78  70  76 NE6       30.02S
TAMPA EXEC     SUNNY     77  72  83 NE3       30.03R
PLANT CITY     SUNNY     77  72  83 E3        30.05R
MACDILL AFB    SUNNY     78  76  94 E7        30.02R
PETER O KNIGHT SUNNY     79  73  83 E5        30.02S
ST PETERSBURG  SUNNY     76  71  85 E7        30.00R
SARASOTA       SUNNY     78  66  66 E7        30.00S
VENICE         NOT AVBL

STATION/POSITION SKY/WX   TEMP    WIND        PRES    WAVE   SWELL
                          AIR SEA DIR/SP/G            HT/PER HT/PER
                          (F)     (DEG/KT/KT) (MB)    (FT/S) (FT/S)
27.3N   84.2W                 80                N/A     2/ 6
CLEARWATER BEACH           76 79   50/  2/  4 1016.3R
MIDDLE TAMPA BAY NOT AVBL
VENICE                     73 79   60/  3/  5 1016.0R

$$
FLZ066-069-070-075>078-162-262-165-265-291400-
SOUTHWEST FLORIDA AND KEYS

CITY           SKY/WX    TMP DP  RH WIND       PRES   REMARKS
PUNTA GORDA    SUNNY     73  71  93 CALM      30.04R
FT MYERS       SUNNY     76  68  76 CALM      30.01R
SOUTHWEST INTL SUNNY     77  70  79 SW5       30.02R
NAPLES         SUNNY     79  72  79 SE6       30.01S
MARCO ISLAND   SUNNY     79  70  73 CALM      30.01S
MARATHON       SUNNY     81  71  71 SE5       30.01S
KEY WEST NAS   MOSUNNY   82  70  66 E8        30.01R
KEY WEST INTL  MOSUNNY   78  71  79 E9        30.01R

STATION/POSITION SKY/WX   TEMP    WIND        PRES    WAVE   SWELL
                          AIR SEA DIR/SP/G            HT/PER HT/PER
                          (F)     (DEG/KT/KT) (MB)    (FT/S) (FT/S)
NAPLES                        81              1016.0R
26.0N   85.6W              78 80  110/ 14/ 17 1015.7R   3/ 5   2/ 7
DRY TORTUGAS               78      90/  9/  9 1015.9R
SAND KEY                   79     110/  9/ 11 1016.5R
LONG KEY                   79 80  130/  6/  7 1016.5S
MOLASSES REEF              79 80  110/  7/  7 1016.8R

$$
FLZ067-068-071>074-168-172>174-291400-
SOUTHEAST FLORIDA

CITY           SKY/WX    TMP DP  RH WIND       PRES   REMARKS
W PALM BEACH   MOSUNNY   77  68  73 S5        30.03S
BOCA RATON     MOSUNNY   79  68  69 CALM      30.03R
FT LAUDER-EXEC MOSUNNY   79  66  64 SE7       30.02R
FT LAUDERDALE  MOSUNNY   80  67  64 SE7       30.02R
POMPANO BEACH  MOSUNNY   77  67  71 SE6       30.02S
PEMBROKE PINES MOSUNNY   80  69  69 S7        30.03S
OPA LOCKA      MOSUNNY   80  68  66 VRB6      30.02S
MIAMI          MOSUNNY   78  68  71 SE6       30.02S
WEST KENDALL   SUNNY     80  68  66 S5        30.02S
HOMESTEAD      MOSUNNY   81  69  67 E6        30.01S

STATION/POSITION SKY/WX   TEMP    WIND        PRES    WAVE   SWELL
                          AIR SEA DIR/SP/G            HT/PER HT/PER
                          (F)     (DEG/KT/KT) (MB)    (FT/S) (FT/S)
PORT EVERGLADES            79     140/  3/  5 1016.7R
VIRGINIA KEY               78 80  140/  3/  4 1016.8R
LAKE WORTH                 76 79  320/  5/  5 1016.6R
SETTLEMENT POINT           78     170/  4/  6 1017.5R

$$




USA.gov is the U.S. government's official web portal to all federal, state and local government web resources and services.